Regional Weather Roundup
Issued by NWS

Home | Current Version | Previous Version | Graphics & Text | Print | Product List | Glossary On
Versions: 1 2 3 4 5 6 7 8 9 10 11 12 13 14 15 16 17 18 19 20 21 22 23 24 25 26 27 28 29 30 31 32 33 34 35 36 37 38 39 40 41 42 43 44 45 46 47 48 49 50
577
ASUS43 KMKX 271211
RWRWI

WISCONSIN REGIONAL WEATHER ROUNDUP
NATIONAL WEATHER SERVICE MILWAUKEE/SULLIVAN WI
700 AM CDT WED JUL 27 2016

NOTE: "FAIR" INDICATES FEW OR NO CLOUDS BELOW 12,000 FEET WITH NO
SIGNIFICANT WEATHER AND/OR OBSTRUCTIONS TO VISIBILITY.

WIZ001-002-006>008-014>016-023>028-271300-
NORTHWEST WISCONSIN

CITY           SKY/WX    TMP DP  RH WIND       PRES   REMARKS
SUPERIOR ARPT  PTSUNNY   64  64  97 CALM      29.97F
6HR MIN TEMP:  62; 6HR MAX TEMP:  71; 6HR PCP:  0.13;

ASHLAND        CLOUDY    68  65  90 SW7       30.00R
6HR MIN TEMP:  65; 6HR MAX TEMP:  72; 6HR PCP: TRACE;

HAYWARD        RAIN      66  63  90 SW7       30.03S FOG
6HR MIN TEMP:  66; 6HR MAX TEMP:  69; 6HR PCP:  0.33;

SIREN          PTSUNNY   66  64  94 SE3       29.98S
CUMBERLAND     CLOUDY    64  63  94 CALM      30.00F
RICE LAKE      CLOUDY    68  63  83 NE6       30.02S
6HR MIN TEMP:  66; 6HR MAX TEMP:  69;

CHETEK         CLOUDY    71  65  81 N5        30.01R
6HR MIN TEMP:  67; 6HR MAX TEMP:  71;

LADYSMITH      RAIN      67  64  89 N12G24    30.05R
6HR MIN TEMP:  66; 6HR MAX TEMP:  69; 6HR PCP:  0.08;

EAU CLAIRE     MOSUNNY   71  69  93 S3        29.99R
6HR MIN TEMP:  69; 6HR MAX TEMP:  73;

MENOMONIE      CLOUDY    70  68  93 CALM      29.99S
6HR MIN TEMP:  69; 6HR MAX TEMP:  72;

NEW RICHMOND   PTSUNNY   71  69  93 CALM      29.98S
6HR MIN TEMP:  68; 6HR MAX TEMP:  72;

OSCEOLA        CLOUDY    70  70 100 CALM      29.99S
6HR MIN TEMP:  67; 6HR MAX TEMP:  72;

$$

WIZ003>005-009-010-017-018-271300-
NORTH CENTRAL WISCONSIN

CITY           SKY/WX    TMP DP  RH WIND       PRES   REMARKS
MANITOWISH WTR LGT RAIN  66  66 100 CALM      30.01F
6HR MIN TEMP:  64; 6HR MAX TEMP:  69; 6HR PCP:  0.03;

ARBOR VITAE    RAIN      65  63  92 CALM      30.02F
6HR MIN TEMP:  62; 6HR MAX TEMP:  66; 6HR PCP:  0.10;

WOODRUFF       RAIN      65  63  92 CALM      30.02F
6HR MIN TEMP:  62; 6HR MAX TEMP:  66; 6HR PCP:  0.10;

RHINELANDER    HVY RAIN  65  62  90 VRB3      30.04R FOG
6HR MIN TEMP:  63; 6HR MAX TEMP:  67; 6HR PCP:  0.13;

EAGLE RIVER    LGT RAIN  63  63 100 W7        30.03R
6HR MIN TEMP:  60; 6HR MAX TEMP:  65;

LAND O LAKES   CLOUDY    64  64  99 SW3       30.03R
6HR MIN TEMP:  61; 6HR MAX TEMP:  65;

PHILLIPS       CLOUDY    64  64  99 SW3       30.03R
6HR MIN TEMP:  64; 6HR MAX TEMP:  66; 6HR PCP:  0.16;

TOMAHAWK       RAIN      62  61  96 CALM      30.04R
6HR MIN TEMP:  59; 6HR MAX TEMP:  66;

MEDFORD        CLOUDY    65  65 100 CALM      30.02R
6HR MIN TEMP:  59; 6HR MAX TEMP:  70;

MERRILL        CLOUDY    63  63 100 CALM      30.02S
6HR MIN TEMP:  60; 6HR MAX TEMP:  72;

$$

WIZ029-030-035-036-043>047-271300-
CENTRAL WISCONSIN

CITY           SKY/WX    TMP DP  RH WIND       PRES   REMARKS
WAUSAU         MOSUNNY   68  65  90 CALM      30.00S
6HR MIN TEMP:  65; 6HR MAX TEMP:  76;

MOSINEE        SUNNY     66  66 100 CALM      30.02S
MARSHFIELD     SUNNY     69  66  90 W3        30.01S
6HR MIN TEMP:  66; 6HR MAX TEMP:  73;

STEVENS POINT  SUNNY     67  66  97 CALM      30.01F
6HR MIN TEMP:  64; 6HR MAX TEMP:  73;

WAUPACA        PTSUNNY   71  71  99 CALM      30.01R
6HR MIN TEMP:  69; 6HR MAX TEMP:  75;

WAUTOMA        MOSUNNY   67  66  97 CALM      30.02R
6HR MIN TEMP:  65; 6HR MAX TEMP:  70;

WISC RAPIDS    SUNNY     70  66  87 CALM      30.01F
6HR MIN TEMP:  65; 6HR MAX TEMP:  73;

CAMP DOUGLAS   MOSUNNY   68  66  94 SE3       30.00F
6HR MIN TEMP:  60; 6HR MAX TEMP:  68;

$$

WIZ011>013-019>022-031-037>040-048>050-271300-
NORTHEAST WISCONSIN

CITY           SKY/WX    TMP DP  RH WIND       PRES   REMARKS
ANTIGO         MOSUNNY   64  62  95 CALM      30.02S
6HR MIN TEMP:  60; 6HR MAX TEMP:  71;

SHAWANO        CLOUDY    71  67  85 W3        29.99S
6HR MIN TEMP:  68; 6HR MAX TEMP:  76;

OCONTO         CLOUDY    69  69 100 CALM      29.96S
STURGEON BAY   SUNNY     71  68  90 S3        29.98R
6HR MIN TEMP:  69; 6HR MAX TEMP:  76;

GREEN BAY      MOSUNNY   70  70 100 W3        29.98F
6HR MIN TEMP:  66; 6HR MAX TEMP:  74;

MANITOWOC      SUNNY     74  66  76 MISG      29.99S
6HR MIN TEMP:  72; 6HR MAX TEMP:  75;

APPLETON       PTSUNNY   72  70  94 CALM      29.99S
CLINTONVILLE   CLOUDY    70  66  88 W3        30.00R
OSHKOSH        PTSUNNY   73  67  81 W5        30.00S
6HR MIN TEMP:  70; 6HR MAX TEMP:  74;

$$

WIZ032>034-041-042-053>061-271300-
SOUTHWEST WISCONSIN

CITY           SKY/WX    TMP DP  RH WIND       PRES   REMARKS
LA CROSSE      SUNNY     73  70  90 S5        30.00R
6HR MIN TEMP:  70; 6HR MAX TEMP:  75;

SPARTA         SUNNY     63  62  97 CALM      30.01S
6HR MIN TEMP:  60; 6HR MAX TEMP:  66;

VIROQUA        SUNNY     68  68  99 CALM      30.03F
6HR MIN TEMP:  64; 6HR MAX TEMP:  69;

BOSCOBEL       FOG       67  66  97 CALM      30.02S VSB 1/4
6HR MIN TEMP:  64; 6HR MAX TEMP:  67;

PRAIRIE DU CHI MOSUNNY   66  64  96 CALM      30.01S FOG
6HR MIN TEMP:  65; 6HR MAX TEMP:  68;

PLATTEVILLE    SUNNY     68  68 100 CALM      30.03F
6HR MIN TEMP:  64; 6HR MAX TEMP:  71;

$$

WIZ056-057-062-063-064-067-068-271300-
SOUTH CENTRAL WISCONSIN

CITY           SKY/WX    TMP DP  RH WIND       PRES   REMARKS
REEDSBURG      PTSUNNY   65  65 100 CALM      30.02S
6HR MIN TEMP:  64; 6HR MAX TEMP:  70;

BARABOO/DELLS  PTSUNNY   68  65  90 CALM      30.03S
6HR MIN TEMP:  64; 6HR MAX TEMP:  70;

LONE ROCK      FOG       65  65 100 CALM      30.03S VSB 1/2
6HR MIN TEMP:  63; 6HR MAX TEMP:  67;

MINERAL POINT  MOSUNNY   70  66  88 CALM      30.04S
MADISON        MOSUNNY   71  67  87 CALM      30.02S
6HR MIN TEMP:  65; 6HR MAX TEMP:  71;

MIDDLETON      SUNNY     70  68  95 CALM      30.03S
6HR MIN TEMP:  64; 6HR MAX TEMP:  70;

WATERTOWN      SUNNY     67  67 100 CALM      30.02S
6HR MIN TEMP:  63; 6HR MAX TEMP:  67;

MONROE         SUNNY     72  63  73 W6        30.04S
JANESVILLE     MOSUNNY   68  66  94 CALM      30.02F
$$

WIZ051-052-058>065-066-070>072-271300-
SOUTHEAST WISCONSIN

CITY           SKY/WX    TMP DP  RH WIND       PRES   REMARKS
MILWAUKEE      MOSUNNY   76  65  68 W5        30.01S
6HR MIN TEMP:  72; 6HR MAX TEMP:  76;

WAUKESHA       SUNNY     66  64  94 CALM      30.04R
MILWAUKEE/TIMM SUNNY     68  61  77 CALM      30.03S
RACINE         SUNNY     72  64  76 W5        30.04R
6HR MIN TEMP:  69; 6HR MAX TEMP:  73;

BURLINGTON     MOSUNNY   65  65  97 CALM      30.03S
6HR MIN TEMP:  61; 6HR MAX TEMP:  65;

KENOSHA        SUNNY     71  66  84 W3        30.03S
6HR MIN TEMP:  65; 6HR MAX TEMP:  71;

FOND DU LAC    SUNNY     70  66  87 SW3       30.01F
6HR MIN TEMP:  66; 6HR MAX TEMP:  71;

SHEBOYGAN      SUNNY     73  67  81 W5        30.00S
6HR MIN TEMP:  66; 6HR MAX TEMP:  73;

WEST BEND      SUNNY     68  64  88 CALM      30.02S
JUNEAU         MOSUNNY   67  65  94 CALM      30.04R
6HR MIN TEMP:  64; 6HR MAX TEMP:  68;

$$

LSZ147-162-271300-
LAKE SUPERIOR

STATION/POSITION TIME  TEMP    WIND        PRES    WAVE
                       AIR SEA DIR/SP/G            HT/PER
                 (UTC) (F)     (DEG/KT/KT) (MB)    (FT/S)
W MID LAKE BUOY  1150   63 60   50/  8/ 10 1015.0R   1
DEVILS ISLAND    1100   66      40/  9/ 10 1015.1R
PORT WING        1100   67     210/  4/  4 1015.2R
SAXON HARBOR     1140   69     200/  4/  5 1014.9R
$$

LMZ867-665-643>646-271300-
LAKE MICHIGAN

STATION/POSITION TIME  TEMP    WIND        PRES    WAVE
                       AIR SEA DIR/SP/G            HT/PER
                 (UTC) (F)     (DEG/KT/KT) (MC1F1C2F2C3F3C4F4C5F5C6F6C7F7C8M1C9M2Ca!



USA.gov is the U.S. government's official web portal to all federal, state and local government web resources and services.